Location: ????????
(55.4000°N, 39.1167°E)
Time: 07:36:04
(UTC+00:00)

Lacrosse 4 Rocket - Pass Details

Date: 19 May 2025
Orbit: 513 x 576 km, 68.0° (Epoch: 15 June)

Event Time Altitude Azimuth Distance (km) Brightness Sun altitude
Rises 18:42:25 0° 251° (WSW) 2,649 5.1 -7.6°
Reaches altitude 10° 18:44:45 10° 262° (W) 1,772 4.3 -7.8°
Maximum altitude 18:48:18 31° 326° (NW) 954 3.5 -8.1°
Drops below altitude 10° 18:51:57 10° 30° (NNE) 1,812 4.3 -8.4°
Sets 18:54:21 0° 40° (NE) 2,720 5.1 -8.5°
